Location: B?dimalle
(17.1788°N, 80.5377°E)
Time: 08:45:32
(UTC+00:00)

Tiros 1 despin weight - All Passes

Search period start: 16 February 2026 00:00
Search period end: 26 February 2026 00:00
Orbit: 557 x 594 km, 48.2° (Epoch: 13 February)

Date Brightness Start Highest point End Pass type
(mag) Time Alt. Az. Time Alt. Az. Time Alt. Az.
16 Feb - 07:11:16 10° S 07:14:09 18° SE 07:17:00 10° E daylight
16 Feb - 08:50:39 10° WSW 08:54:30 34° NW 08:58:20 10° NNE daylight
16 Feb - 17:23:20 10° NNW 17:27:20 39° NE 17:31:22 10° ESE night (unlit)
16 Feb - 19:05:06 10° W 19:07:40 16° SW 19:10:15 10° SSW night (unlit)
17 Feb - 07:12:43 10° SSW 07:16:34 33° SE 07:20:22 10° ENE daylight
17 Feb - 08:54:01 10° W 08:57:05 19° NW 09:00:09 10° N daylight
17 Feb - 17:25:36 10° NW 17:29:50 77° NE 17:34:08 10° SE night (unlit)
18 Feb - 07:14:46 10° SSW 07:19:00 67° SE 07:23:11 10° NE daylight
18 Feb - 08:58:28 10° WNW 08:59:46 11° NW 09:01:03 10° NNW daylight
18 Feb - 15:49:28 10° N 15:51:37 14° NE 15:53:46 10° ENE night (unlit)
18 Feb - 17:28:10 10° NW 17:32:18 53° SW 17:36:29 10° SSE night (unlit)
19 Feb - 07:17:15 10° SW 07:21:27 61° NW 07:25:38 10° NE daylight
19 Feb - 15:50:51 10° N 15:54:15 23° NE 15:57:40 10° E night (unlit)
19 Feb - 17:31:06 10° WNW 17:34:43 27° SW 17:38:21 10° S night (unlit)
20 Feb - 05:40:33 10° S 05:43:36 19° SE 05:46:37 10° E daylight
20 Feb - 07:20:08 10° WSW 07:23:58 32° NW 07:27:46 10° NNE daylight
20 Feb - 15:52:47 10° NNW 15:56:47 41° NE 16:00:49 10° ESE night (unlit)
20 Feb - 17:34:44 10° W 17:37:05 15° SW 17:39:28 10° SSW night (unlit)
21 Feb - 05:42:03 10° SSW 05:45:59 36° SE 05:49:53 10° ENE daylight
21 Feb - 07:23:32 10° W 07:26:31 19° NW 07:29:31 10° N daylight
21 Feb - 15:55:02 10° NW 15:59:16 82° NE 16:03:31 10° SE night (unlit)
22 Feb - 05:44:07 10° SW 05:48:24 72° SE 05:52:37 10° NE daylight
22 Feb - 07:28:09 10° NW 07:29:10 11° NW 07:30:12 10° NNW daylight
22 Feb - 14:18:46 10° N 14:21:02 14° NE 14:23:18 10° ENE visible
22 Feb - 15:57:36 10° NW 16:01:41 50° SW 16:05:48 10° SSE night (unlit)
23 Feb - 04:09:46 10° SE 04:10:34 10° SE 04:11:22 10° ESE daylight
23 Feb - 05:46:36 10° SW 05:50:49 58° NW 05:55:00 10° NNE daylight
23 Feb - 14:20:10 10° NNW 14:23:37 24° NE 14:27:05 10° E visible
23 Feb - 16:00:33 10° WNW 16:04:03 26° SW 16:07:36 10° S night (unlit)
24 Feb - 04:09:43 10° S 04:12:55 20° SE 04:16:06 10° E daylight
24 Feb - 05:49:29 10° WSW 05:53:19 31° NW 05:57:05 10° NNE daylight
24 Feb - 14:22:07 10° NNW 14:26:07 44° NE 14:30:10 10° ESE visible
24 Feb - 16:04:18 10° W 16:06:25 14° SW 16:08:32 10° SSW night (unlit)
25 Feb - 04:11:16 10° SSW 04:15:17 38° SE 04:19:15 10° ENE daylight
25 Feb - 05:52:55 10° W 05:55:51 18° NW 05:58:47 10° N daylight
25 Feb - 14:24:22 10° NW 14:28:34 87° NE 14:32:47 10° SE visible
